Location: Eisingen in Unterfranken
(49.7591°N, 9.8347°E)
Time: 09:08:02
(UTC+01:00)

Envisat - Pass Details

Date: 04 December 2022
Orbit: 763 x 765 km, 98.2° (Epoch: 28 January)

Event Time Altitude Azimuth Distance (km) Brightness Sun altitude
Rises 04:41:18 0° 14° (NNE) 3,246 6.4 -31.1°
Reaches altitude 10° 04:43:37 10° 16° (NNE) 2,315 5.6 -30.7°
Enters shadow 04:46:01 28° 18° (NNE) 1,401 4.4 -30.3°
